Time,TemperatureF,DewpointF,PressureIn,WindDirection,WindDirectionDegrees,WindSpeedMPH,WindSpeedGustMPH,Humidity,HourlyPrecipIn,Conditions,Clouds,dailyrainin,SoftwareType,DateUTC
2013-02-27 00:00:00,30.0,31.0,27.50,NNW,337,1.0,3.0,100,0.00,,,1.46,Rainwise IP-100,2013-02-27 05:00:00,
2013-02-27 00:05:00,30.0,31.0,27.50,South,180,0.0,1.0,100,0.00,,,0.00,Rainwise IP-100,2013-02-27 05:05:00,
2013-02-27 00:10:00,31.0,31.0,27.49,NNE,22,0.0,0.0,100,0.00,,,0.00,Rainwise IP-100,2013-02-27 05:10:00,
2013-02-27 00:15:00,31.0,31.0,27.49,NNE,22,0.0,0.0,100,0.00,,,0.00,Rainwise IP-100,2013-02-27 05:15:00,
2013-02-27 00:20:00,31.0,31.0,27.51,NNE,22,0.0,0.0,100,0.00,,,0.00,Rainwise IP-100,2013-02-27 05:20:00,
2013-02-27 00:25:00,31.0,31.0,27.51,NNE,22,0.0,0.0,100,0.00,,,0.00,Rainwise IP-100,2013-02-27 05:25:00,
2013-02-27 00:30:00,31.0,31.0,27.50,NNE,22,0.0,0.0,100,0.00,,,0.00,Rainwise IP-100,2013-02-27 05:30:00,
2013-02-27 00:35:00,31.0,31.0,27.50,WNW,292,1.0,1.0,100,0.00,,,0.00,Rainwise IP-100,2013-02-27 05:35:00,
2013-02-27 00:40:00,31.0,31.0,27.50,WNW,292,0.0,2.0,100,0.00,,,0.00,Rainwise IP-100,2013-02-27 05:40:00,
2013-02-27 00:45:00,32.0,32.0,27.50,East,90,0.0,2.0,100,0.00,,,0.00,Rainwise IP-100,2013-02-27 05:45:00,
2013-02-27 00:50:00,31.0,31.0,27.50,ENE,67,1.0,2.0,100,0.00,,,0.00,Rainwise IP-100,2013-02-27 05:50:00,
2013-02-27 00:55:00,32.0,32.0,27.50,NE,45,0.0,3.0,100,0.00,,,0.00,Rainwise IP-100,2013-02-27 05:55:00,
2013-02-27 01:00:00,32.0,32.0,27.50,SSW,202,0.0,3.0,100,0.00,,,0.00,Rainwise IP-100,2013-02-27 06:00:00,
2013-02-27 01:05:00,32.0,32.0,27.50,SSE,157,0.0,2.0,100,0.00,,,0.00,Rainwise IP-100,2013-02-27 06:05:00,
2013-02-27 01:10:00,32.0,32.0,27.50,West,270,1.0,3.0,100,0.00,,,0.00,Rainwise IP-100,2013-02-27 06:10:00,
2013-02-27 01:15:00,31.0,31.0,27.50,SW,225,0.0,3.0,100,0.00,,,0.00,Rainwise IP-100,2013-02-27 06:15:00,
2013-02-27 01:20:00,33.0,33.0,27.50,NW,315,6.0,6.0,100,0.00,,,0.00,Rainwise IP-100,2013-02-27 06:20:00,
2013-02-27 01:25:00,32.0,32.0,27.50,WSW,247,1.0,6.0,100,0.00,,,0.00,Rainwise IP-100,2013-02-27 06:25:00,
2013-02-27 01:30:00,32.0,32.0,27.49,WSW,247,0.0,2.0,100,0.00,,,0.00,Rainwise IP-100,2013-02-27 06:30:00,
2013-02-27 01:35:00,32.0,32.0,27.49,WNW,292,1.0,1.0,100,0.00,,,0.00,Rainwise IP-100,2013-02-27 06:35:00,
2013-02-27 01:40:00,32.0,32.0,27.50,WSW,247,0.0,2.0,100,0.00,,,0.00,Rainwise IP-100,2013-02-27 06:40:00,
2013-02-27 01:45:00,32.0,32.0,27.50,NW,315,0.0,2.0,100,0.00,,,0.00,Rainwise IP-100,2013-02-27 06:45:00,
2013-02-27 01:50:00,32.0,32.0,27.50,SW,225,0.0,2.0,100,0.00,,,0.00,Rainwise IP-100,2013-02-27 06:50:00,
2013-02-27 01:55:00,32.0,32.0,27.50,West,270,0.0,3.0,100,0.00,,,0.00,Rainwise IP-100,2013-02-27 06:55:00,
2013-02-27 02:00:00,32.0,32.0,27.50,West,270,0.0,0.0,100,0.00,,,0.00,Rainwise IP-100,2013-02-27 07:00:00,
2013-02-27 02:05:00,32.0,32.0,27.50,NW,315,0.0,0.0,100,0.00,,,0.00,Rainwise IP-100,2013-02-27 07:05:00,
2013-02-27 02:10:00,32.0,32.0,27.50,SSW,202,0.0,2.0,100,0.00,,,0.00,Rainwise IP-100,2013-02-27 07:10:00,
2013-02-27 02:15:00,32.0,32.0,27.50,West,270,0.0,2.0,100,0.00,,,0.00,Rainwise IP-100,2013-02-27 07:15:00,
2013-02-27 02:20:00,32.0,32.0,27.51,SW,225,0.0,2.0,100,0.00,,,0.00,Rainwise IP-100,2013-02-27 07:20:00,
2013-02-27 02:25:00,33.0,33.0,27.51,WNW,292,0.0,2.0,100,0.00,,,0.00,Rainwise IP-100,2013-02-27 07:25:00,
2013-02-27 02:30:00,35.0,35.0,27.51,West,270,1.0,5.0,100,0.00,,,0.00,Rainwise IP-100,2013-02-27 07:30:00,
2013-02-27 02:35:00,35.0,35.0,27.51,WSW,247,2.0,4.0,100,0.00,,,0.00,Rainwise IP-100,2013-02-27 07:35:00,
2013-02-27 02:40:00,35.0,35.0,27.49,WNW,292,2.0,4.0,100,0.00,,,0.00,Rainwise IP-100,2013-02-27 07:40:00,
2013-02-27 02:45:00,35.0,35.0,27.49,WSW,247,1.0,5.0,100,0.00,,,0.00,Rainwise IP-100,2013-02-27 07:45:00,
2013-02-27 02:50:00,34.0,35.0,27.50,WSW,247,0.0,2.0,100,0.00,,,0.00,Rainwise IP-100,2013-02-27 07:50:00,
2013-02-27 02:55:00,34.0,35.0,27.50,West,270,1.0,2.0,100,0.00,,,0.00,Rainwise IP-100,2013-02-27 07:55:00,
2013-02-27 03:00:00,34.0,35.0,27.50,West,270,0.0,3.0,100,0.00,,,0.00,Rainwise IP-100,2013-02-27 08:00:00,
2013-02-27 03:05:00,35.0,35.0,27.50,West,270,0.0,3.0,100,0.00,,,0.00,Rainwise IP-100,2013-02-27 08:05:00,
2013-02-27 03:10:00,36.0,36.0,27.49,WNW,292,2.0,4.0,100,0.00,,,0.00,Rainwise IP-100,2013-02-27 08:10:00,
2013-02-27 03:15:00,37.0,37.0,27.49,West,270,2.0,6.0,100,0.00,,,0.00,Rainwise IP-100,2013-02-27 08:15:00,
2013-02-27 03:20:00,37.0,37.0,27.48,WNW,292,4.0,6.0,100,0.00,,,0.00,Rainwise IP-100,2013-02-27 08:20:00,
2013-02-27 03:25:00,38.0,38.0,27.48,NW,315,2.0,7.0,100,0.00,,,0.00,Rainwise IP-100,2013-02-27 08:25:00,
2013-02-27 03:30:00,38.0,38.0,27.48,WSW,247,2.0,5.0,100,0.00,,,0.00,Rainwise IP-100,2013-02-27 08:30:00,
2013-02-27 03:35:00,37.0,37.0,27.48,WNW,292,0.0,4.0,100,0.00,,,0.00,Rainwise IP-100,2013-02-27 08:35:00,
2013-02-27 03:40:00,37.0,37.0,27.50,SSW,202,0.0,2.0,100,0.00,,,0.00,Rainwise IP-100,2013-02-27 08:40:00,
2013-02-27 03:45:00,37.0,37.0,27.50,SW,225,2.0,3.0,100,0.00,,,0.00,Rainwise IP-100,2013-02-27 08:45:00,
2013-02-27 03:50:00,37.0,37.0,27.50,WSW,247,1.0,3.0,100,0.00,,,0.00,Rainwise IP-100,2013-02-27 08:50:00,
2013-02-27 03:55:00,37.0,37.0,27.50,SSW,202,2.0,3.0,100,0.00,,,0.00,Rainwise IP-100,2013-02-27 08:55:00,
2013-02-27 04:00:00,37.0,37.0,27.50,NW,315,0.0,5.0,100,0.00,,,0.00,Rainwise IP-100,2013-02-27 09:00:00,
2013-02-27 04:05:00,37.0,37.0,27.50,WSW,247,0.0,2.0,100,0.00,,,0.00,Rainwise IP-100,2013-02-27 09:05:00,
2013-02-27 04:10:00,37.0,37.0,27.50,WSW,247,2.0,6.0,100,0.00,,,0.00,Rainwise IP-100,2013-02-27 09:10:00,
2013-02-27 04:15:00,38.0,38.0,27.50,WNW,292,1.0,6.0,100,0.00,,,0.00,Rainwise IP-100,2013-02-27 09:15:00,
2013-02-27 04:20:00,38.0,38.0,27.50,West,270,3.0,7.0,100,0.00,,,0.00,Rainwise IP-100,2013-02-27 09:20:00,
2013-02-27 04:25:00,38.0,38.0,27.51,NNW,337,3.0,6.0,100,0.00,,,0.00,Rainwise IP-100,2013-02-27 09:25:00,
2013-02-27 04:30:00,37.0,37.0,27.51,West,270,2.0,6.0,100,0.00,,,0.00,Rainwise IP-100,2013-02-27 09:30:00,
2013-02-27 04:35:00,37.0,37.0,27.51,West,270,1.0,6.0,100,0.00,,,0.00,Rainwise IP-100,2013-02-27 09:35:00,
2013-02-27 04:40:00,37.0,37.0,27.51,SW,225,3.0,4.0,100,0.00,,,0.00,Rainwise IP-100,2013-02-27 09:40:00,
2013-02-27 04:45:00,37.0,37.0,27.51,WNW,292,0.0,3.0,100,0.00,,,0.00,Rainwise IP-100,2013-02-27 09:45:00,
2013-02-27 04:50:00,36.0,36.0,27.53,WNW,292,6.0,6.0,100,0.00,,,0.00,Rainwise IP-100,2013-02-27 09:50:00,
2013-02-27 04:55:00,36.0,36.0,27.53,WNW,292,0.0,6.0,100,0.00,,,0.00,Rainwise IP-100,2013-02-27 09:55:00,
2013-02-27 05:00:00,35.0,35.0,27.53,WNW,292,0.0,1.0,100,0.00,,,0.00,Rainwise IP-100,2013-02-27 10:00:00,
2013-02-27 05:05:00,35.0,35.0,27.53,NW,315,0.0,1.0,100,0.00,,,0.00,Rainwise IP-100,2013-02-27 10:05:00,
2013-02-27 05:10:00,35.0,35.0,27.52,NNE,22,0.0,1.0,100,0.00,,,0.00,Rainwise IP-100,2013-02-27 10:10:00,
2013-02-27 05:15:00,34.0,35.0,27.52,NNE,22,0.0,1.0,100,0.00,,,0.00,Rainwise IP-100,2013-02-27 10:15:00,
2013-02-27 05:20:00,34.0,35.0,27.54,NNE,22,0.0,0.0,100,0.00,,,0.00,Rainwise IP-100,2013-02-27 10:20:00,
2013-02-27 05:25:00,33.0,33.0,27.54,WNW,292,0.0,1.0,100,0.00,,,0.00,Rainwise IP-100,2013-02-27 10:25:00,
2013-02-27 05:26:00,33.0,33.0,27.55,NE,45,2.0,2.0,100,0.00,,,0.00,Rainwise IP-100,2013-02-27 10:26:00,
2013-02-27 05:31:00,33.0,33.0,27.55,NNE,22,0.0,2.0,100,0.00,,,0.00,Rainwise IP-100,2013-02-27 10:31:00,
2013-02-27 05:36:00,33.0,33.0,27.55,WSW,247,0.0,2.0,100,0.00,,,0.00,Rainwise IP-100,2013-02-27 10:36:00,
2013-02-27 05:41:00,32.0,32.0,27.55,WNW,292,0.0,2.0,100,0.00,,,0.00,Rainwise IP-100,2013-02-27 10:41:00,
2013-02-27 05:46:00,33.0,33.0,27.55,NNW,337,0.0,3.0,100,0.00,,,0.00,Rainwise IP-100,2013-02-27 10:46:00,
2013-02-27 05:51:00,34.0,35.0,27.55,WNW,292,0.0,0.0,100,0.00,,,0.00,Rainwise IP-100,2013-02-27 10:51:00,
2013-02-27 05:56:00,34.0,35.0,27.55,WSW,247,0.0,1.0,100,0.00,,,0.00,Rainwise IP-100,2013-02-27 10:56:00,
2013-02-27 06:01:00,34.0,35.0,27.55,WSW,247,0.0,0.0,100,0.00,,,0.00,Rainwise IP-100,2013-02-27 11:01:00,
2013-02-27 06:06:00,34.0,35.0,27.56,North,360,1.0,2.0,100,0.00,,,0.00,Rainwise IP-100,2013-02-27 11:06:00,
2013-02-27 06:11:00,34.0,35.0,27.56,NNW,337,0.0,3.0,100,0.00,,,0.00,Rainwise IP-100,2013-02-27 11:11:00,
2013-02-27 06:16:00,35.0,35.0,27.55,WSW,247,0.0,2.0,100,0.00,,,0.00,Rainwise IP-100,2013-02-27 11:16:00,
2013-02-27 06:21:00,35.0,35.0,27.55,North,360,0.0,2.0,100,0.00,,,0.00,Rainwise IP-100,2013-02-27 11:21:00,
2013-02-27 06:26:00,34.0,35.0,27.56,WSW,247,0.0,3.0,100,0.00,,,0.00,Rainwise IP-100,2013-02-27 11:26:00,
2013-02-27 06:31:00,35.0,35.0,27.56,WNW,292,0.0,3.0,100,0.00,,,0.00,Rainwise IP-100,2013-02-27 11:31:00,
2013-02-27 06:36:00,35.0,35.0,27.55,ESE,112,0.0,2.0,100,0.00,,,0.00,Rainwise IP-100,2013-02-27 11:36:00,
2013-02-27 06:41:00,35.0,35.0,27.55,NNW,337,0.0,3.0,100,0.00,,,0.00,Rainwise IP-100,2013-02-27 11:41:00,
2013-02-27 06:46:00,35.0,35.0,27.55,North,360,0.0,7.0,100,0.00,,,0.00,Rainwise IP-100,2013-02-27 11:46:00,
2013-02-27 06:51:00,35.0,35.0,27.55,WNW,292,1.0,2.0,100,0.00,,,0.00,Rainwise IP-100,2013-02-27 11:51:00,
2013-02-27 06:56:00,35.0,35.0,27.55,NNW,337,0.0,2.0,100,0.00,,,0.00,Rainwise IP-100,2013-02-27 11:56:00,
2013-02-27 07:01:00,35.0,35.0,27.55,NNW,337,0.0,4.0,100,0.00,,,0.00,Rainwise IP-100,2013-02-27 12:01:00,
2013-02-27 07:06:00,35.0,35.0,27.56,North,360,2.0,2.0,100,0.00,,,0.00,Rainwise IP-100,2013-02-27 12:06:00,
2013-02-27 07:11:00,35.0,35.0,27.56,NW,315,2.0,5.0,100,0.00,,,0.00,Rainwise IP-100,2013-02-27 12:11:00,
2013-02-27 07:16:00,35.0,35.0,27.56,WSW,247,1.0,7.0,100,0.00,,,0.00,Rainwise IP-100,2013-02-27 12:16:00,
2013-02-27 07:22:00,35.0,35.0,27.56,NW,315,0.0,3.0,100,0.00,,,0.00,Rainwise IP-100,2013-02-27 12:22:00,
2013-02-27 07:27:00,35.0,35.0,27.55,NNE,22,0.0,6.0,100,0.00,,,0.00,Rainwise IP-100,2013-02-27 12:27:00,
2013-02-27 07:32:00,35.0,35.0,27.55,SSW,202,1.0,3.0,100,0.00,,,0.00,Rainwise IP-100,2013-02-27 12:32:00,
2013-02-27 07:37:00,36.0,36.0,27.56,NNW,337,0.0,4.0,100,0.00,,,0.00,Rainwise IP-100,2013-02-27 12:37:00,
2013-02-27 07:42:00,36.0,36.0,27.56,SSW,202,1.0,3.0,100,0.00,,,0.00,Rainwise IP-100,2013-02-27 12:42:00,
2013-02-27 07:47:00,36.0,36.0,27.58,WSW,247,1.0,7.0,100,0.00,,,0.00,Rainwise IP-100,2013-02-27 12:47:00,
2013-02-27 07:52:00,37.0,37.0,27.58,SSW,202,2.0,5.0,100,0.00,,,0.00,Rainwise IP-100,2013-02-27 12:52:00,
2013-02-27 07:57:00,37.0,37.0,27.59,NW,315,0.0,4.0,100,0.00,,,0.00,Rainwise IP-100,2013-02-27 12:57:00,
2013-02-27 08:02:00,37.0,37.0,27.59,SW,225,2.0,4.0,100,0.00,,,0.00,Rainwise IP-100,2013-02-27 13:02:00,
2013-02-27 08:07:00,37.0,37.0,27.59,SSE,157,1.0,5.0,100,0.00,,,0.00,Rainwise IP-100,2013-02-27 13:07:00,
2013-02-27 08:12:00,37.0,37.0,27.59,West,270,2.0,4.0,100,0.00,,,0.00,Rainwise IP-100,2013-02-27 13:12:00,
2013-02-27 08:17:00,37.0,37.0,27.60,SSE,157,2.0,5.0,100,0.00,,,0.00,Rainwise IP-100,2013-02-27 13:17:00,
2013-02-27 08:22:00,37.0,37.0,27.60,SSW,202,3.0,3.0,100,0.00,,,0.00,Rainwise IP-100,2013-02-27 13:22:00,
2013-02-27 08:27:00,37.0,37.0,27.60,SE,135,2.0,5.0,100,0.00,,,0.00,Rainwise IP-100,2013-02-27 13:27:00,
2013-02-27 08:32:00,37.0,37.0,27.60,WSW,247,1.0,4.0,100,0.00,,,0.00,Rainwise IP-100,2013-02-27 13:32:00,
2013-02-27 08:37:00,38.0,38.0,27.60,WNW,292,0.0,3.0,100,0.00,,,0.00,Rainwise IP-100,2013-02-27 13:37:00,
2013-02-27 08:42:00,39.0,39.0,27.60,WSW,247,0.0,4.0,100,0.00,,,0.00,Rainwise IP-100,2013-02-27 13:42:00,
2013-02-27 08:47:00,39.0,38.0,27.61,SE,135,1.0,4.0,94,0.00,,,0.00,Rainwise IP-100,2013-02-27 13:47:00,
2013-02-27 08:52:00,40.0,39.0,27.61,SSW,202,7.0,7.0,95,0.00,,,0.00,Rainwise IP-100,2013-02-27 13:52:00,
2013-02-27 08:57:00,41.0,41.0,27.60,SSW,202,0.0,9.0,100,0.00,,,0.00,Rainwise IP-100,2013-02-27 13:57:00,
2013-02-27 09:02:00,41.0,37.0,27.60,West,270,5.0,6.0,85,0.00,,,0.00,Rainwise IP-100,2013-02-27 14:02:00,
2013-02-27 09:07:00,40.0,36.0,27.61,West,270,3.0,7.0,83,0.00,,,0.00,Rainwise IP-100,2013-02-27 14:07:00,
2013-02-27 09:12:00,41.0,39.0,27.61,WNW,292,0.0,7.0,91,0.00,,,0.00,Rainwise IP-100,2013-02-27 14:12:00,
2013-02-27 09:17:00,41.0,37.0,27.60,NE,45,1.0,6.0,83,0.00,,,0.00,Rainwise IP-100,2013-02-27 14:17:00,
2013-02-27 09:22:00,41.0,36.0,27.60,West,270,3.0,4.0,82,0.00,,,0.00,Rainwise IP-100,2013-02-27 14:22:00,
2013-02-27 09:27:00,41.0,35.0,27.61,SE,135,7.0,7.0,78,0.00,,,0.00,Rainwise IP-100,2013-02-27 14:27:00,
2013-02-27 09:32:00,41.0,36.0,27.61,SW,225,4.0,7.0,79,0.00,,,0.00,Rainwise IP-100,2013-02-27 14:32:00,
2013-02-27 09:37:00,42.0,36.0,27.61,SSE,157,0.0,6.0,77,0.00,,,0.00,Rainwise IP-100,2013-02-27 14:37:00,
2013-02-27 09:42:00,43.0,39.0,27.61,SSW,202,0.0,4.0,84,0.00,,,0.00,Rainwise IP-100,2013-02-27 14:42:00,
2013-02-27 09:47:00,42.0,33.0,27.63,WSW,247,4.0,6.0,71,0.00,,,0.00,Rainwise IP-100,2013-02-27 14:47:00,
2013-02-27 09:52:00,42.0,36.0,27.63,SSW,202,5.0,11.0,76,0.00,,,0.00,Rainwise IP-100,2013-02-27 14:52:00,
2013-02-27 09:57:00,43.0,36.0,27.63,WSW,247,1.0,5.0,76,0.00,,,0.00,Rainwise IP-100,2013-02-27 14:57:00,
2013-02-27 10:02:00,43.0,36.0,27.63,South,180,1.0,7.0,76,0.00,,,0.00,Rainwise IP-100,2013-02-27 15:02:00,
2013-02-27 10:07:00,43.0,37.0,27.63,WSW,247,0.0,7.0,80,0.00,,,0.00,Rainwise IP-100,2013-02-27 15:07:00,
2013-02-27 10:12:00,44.0,37.0,27.63,SSE,157,1.0,3.0,76,0.00,,,0.00,Rainwise IP-100,2013-02-27 15:12:00,
2013-02-27 10:17:00,43.0,35.0,27.63,NNE,22,4.0,5.0,72,0.00,,,0.00,Rainwise IP-100,2013-02-27 15:17:00,
2013-02-27 10:22:00,44.0,37.0,27.63,NE,45,3.0,6.0,77,0.00,,,0.00,Rainwise IP-100,2013-02-27 15:22:00,
2013-02-27 10:27:00,44.0,35.0,27.62,East,90,4.0,8.0,70,0.00,,,0.00,Rainwise IP-100,2013-02-27 15:27:00,
2013-02-27 10:32:00,44.0,36.0,27.62,West,270,4.0,6.0,72,0.00,,,0.00,Rainwise IP-100,2013-02-27 15:32:00,
2013-02-27 10:37:00,43.0,35.0,27.62,WNW,292,3.0,7.0,72,0.00,,,0.00,Rainwise IP-100,2013-02-27 15:37:00,
2013-02-27 10:42:00,44.0,36.0,27.62,SSW,202,4.0,6.0,72,0.00,,,0.00,Rainwise IP-100,2013-02-27 15:42:00,
2013-02-27 10:47:00,43.0,36.0,27.62,WNW,292,5.0,6.0,76,0.00,,,0.00,Rainwise IP-100,2013-02-27 15:47:00,
2013-02-27 10:52:00,44.0,38.0,27.62,WSW,247,3.0,7.0,81,0.00,,,0.00,Rainwise IP-100,2013-02-27 15:52:00,
2013-02-27 10:57:00,44.0,36.0,27.63,North,360,2.0,6.0,71,0.00,,,0.00,Rainwise IP-100,2013-02-27 15:57:00,
2013-02-27 11:02:00,45.0,37.0,27.63,West,270,0.0,7.0,73,0.00,,,0.00,Rainwise IP-100,2013-02-27 16:02:00,
2013-02-27 11:07:00,46.0,37.0,27.63,West,270,1.0,4.0,71,0.00,,,0.00,Rainwise IP-100,2013-02-27 16:07:00,
2013-02-27 11:12:00,46.0,38.0,27.63,ESE,112,0.0,6.0,73,0.00,,,0.00,Rainwise IP-100,2013-02-27 16:12:00,
2013-02-27 11:17:00,47.0,38.0,27.62,SSW,202,0.0,4.0,72,0.00,,,0.00,Rainwise IP-100,2013-02-27 16:17:00,
2013-02-27 11:22:00,46.0,35.0,27.62,WSW,247,3.0,8.0,66,0.00,,,0.00,Rainwise IP-100,2013-02-27 16:22:00,
2013-02-27 11:27:00,46.0,35.0,27.63,NNW,337,3.0,4.0,65,0.00,,,0.00,Rainwise IP-100,2013-02-27 16:27:00,
2013-02-27 11:32:00,46.0,35.0,27.63,West,270,0.0,6.0,64,0.00,,,0.00,Rainwise IP-100,2013-02-27 16:32:00,
2013-02-27 11:37:00,47.0,36.0,27.62,West,270,3.0,5.0,66,0.00,,,0.00,Rainwise IP-100,2013-02-27 16:37:00,
2013-02-27 11:42:00,47.0,37.0,27.62,East,90,2.0,7.0,69,0.00,,,0.00,Rainwise IP-100,2013-02-27 16:42:00,
2013-02-27 11:47:00,47.0,35.0,27.62,West,270,1.0,5.0,64,0.00,,,0.00,Rainwise IP-100,2013-02-27 16:47:00,
2013-02-27 11:52:00,47.0,35.0,27.62,West,270,3.0,4.0,63,0.00,,,0.00,Rainwise IP-100,2013-02-27 16:52:00,
2013-02-27 11:57:00,48.0,38.0,27.62,SSW,202,0.0,3.0,67,0.00,,,0.00,Rainwise IP-100,2013-02-27 16:57:00,
2013-02-27 12:02:00,48.0,37.0,27.62,NW,315,0.0,4.0,65,0.00,,,0.00,Rainwise IP-100,2013-02-27 17:02:00,
2013-02-27 12:07:00,49.0,40.0,27.61,NNE,22,0.0,4.0,72,0.00,,,0.00,Rainwise IP-100,2013-02-27 17:07:00,
2013-02-27 12:12:00,50.0,36.0,27.61,SSW,202,4.0,5.0,59,0.00,,,0.00,Rainwise IP-100,2013-02-27 17:12:00,
2013-02-27 12:17:00,48.0,36.0,27.61,SSW,202,3.0,6.0,62,0.00,,,0.00,Rainwise IP-100,2013-02-27 17:17:00,
2013-02-27 12:22:00,49.0,38.0,27.61,WNW,292,0.0,4.0,65,0.00,,,0.00,Rainwise IP-100,2013-02-27 17:22:00,
2013-02-27 12:27:00,50.0,38.0,27.59,South,180,0.0,4.0,64,0.00,,,0.00,Rainwise IP-100,2013-02-27 17:27:00,
2013-02-27 12:32:00,50.0,37.0,27.59,SSW,202,0.0,6.0,60,0.00,,,0.00,Rainwise IP-100,2013-02-27 17:32:00,
2013-02-27 12:37:00,49.0,37.0,27.60,SW,225,2.0,5.0,62,0.00,,,0.00,Rainwise IP-100,2013-02-27 17:37:00,
2013-02-27 12:42:00,50.0,37.0,27.60,West,270,1.0,4.0,60,0.00,,,0.00,Rainwise IP-100,2013-02-27 17:42:00,
2013-02-27 12:47:00,51.0,40.0,27.58,North,360,0.0,3.0,66,0.00,,,0.00,Rainwise IP-100,2013-02-27 17:47:00,
2013-02-27 12:52:00,51.0,38.0,27.58,NW,315,0.0,4.0,60,0.00,,,0.00,Rainwise IP-100,2013-02-27 17:52:00,
2013-02-27 12:57:00,52.0,40.0,27.56,SE,135,0.0,5.0,63,0.00,,,0.00,Rainwise IP-100,2013-02-27 17:57:00,
2013-02-27 13:02:00,52.0,39.0,27.56,West,270,3.0,5.0,62,0.00,,,0.00,Rainwise IP-100,2013-02-27 18:02:00,
2013-02-27 13:07:00,52.0,40.0,27.57,SSW,202,2.0,4.0,63,0.00,,,0.00,Rainwise IP-100,2013-02-27 18:07:00,
2013-02-27 13:12:00,53.0,37.0,27.57,West,270,3.0,3.0,56,0.00,,,0.00,Rainwise IP-100,2013-02-27 18:12:00,
2013-02-27 13:17:00,53.0,41.0,27.56,WSW,247,0.0,3.0,64,0.00,,,0.00,Rainwise IP-100,2013-02-27 18:17:00,
2013-02-27 13:22:00,52.0,38.0,27.56,WNW,292,1.0,6.0,59,0.00,,,0.00,Rainwise IP-100,2013-02-27 18:22:00,
2013-02-27 13:27:00,53.0,38.0,27.56,WNW,292,2.0,3.0,58,0.00,,,0.00,Rainwise IP-100,2013-02-27 18:27:00,
2013-02-27 13:32:00,52.0,40.0,27.56,NNW,337,0.0,5.0,63,0.00,,,0.00,Rainwise IP-100,2013-02-27 18:32:00,
2013-02-27 13:37:00,54.0,41.0,27.56,SSW,202,0.0,3.0,61,0.00,,,0.00,Rainwise IP-100,2013-02-27 18:37:00,
2013-02-27 13:42:00,55.0,42.0,27.56,NE,45,0.0,3.0,61,0.00,,,0.00,Rainwise IP-100,2013-02-27 18:42:00,
2013-02-27 13:47:00,55.0,41.0,27.54,WSW,247,0.0,3.0,59,0.00,,,0.00,Rainwise IP-100,2013-02-27 18:47:00,
2013-02-27 13:52:00,55.0,43.0,27.54,SSE,157,1.0,4.0,64,0.00,,,0.00,Rainwise IP-100,2013-02-27 18:52:00,
2013-02-27 13:57:00,55.0,40.0,27.54,WSW,247,3.0,7.0,57,0.00,,,0.00,Rainwise IP-100,2013-02-27 18:57:00,
2013-02-27 14:02:00,55.0,41.0,27.54,ESE,112,0.0,4.0,59,0.00,,,0.00,Rainwise IP-100,2013-02-27 19:02:00,
2013-02-27 14:07:00,56.0,42.0,27.54,SSE,157,1.0,4.0,61,0.00,,,0.00,Rainwise IP-100,2013-02-27 19:07:00,
2013-02-27 14:12:00,55.0,42.0,27.54,ESE,112,4.0,5.0,61,0.00,,,0.00,Rainwise IP-100,2013-02-27 19:12:00,
2013-02-27 14:17:00,55.0,42.0,27.54,SE,135,6.0,10.0,61,0.00,,,0.00,Rainwise IP-100,2013-02-27 19:17:00,
2013-02-27 14:22:00,55.0,42.0,27.54,SE,135,1.0,8.0,61,0.00,,,0.00,Rainwise IP-100,2013-02-27 19:22:00,
2013-02-27 14:27:00,55.0,43.0,27.54,SE,135,7.0,7.0,63,0.00,,,0.00,Rainwise IP-100,2013-02-27 19:27:00,
2013-02-27 14:32:00,54.0,40.0,27.54,SSW,202,0.0,7.0,59,0.00,,,0.00,Rainwise IP-100,2013-02-27 19:32:00,
2013-02-27 14:37:00,55.0,43.0,27.55,ENE,67,1.0,6.0,63,0.00,,,0.00,Rainwise IP-100,2013-02-27 19:37:00,
2013-02-27 14:42:00,54.0,40.0,27.55,East,90,3.0,6.0,59,0.00,,,0.00,Rainwise IP-100,2013-02-27 19:42:00,
2013-02-27 14:47:00,55.0,41.0,27.54,SSE,157,4.0,8.0,59,0.00,,,0.00,Rainwise IP-100,2013-02-27 19:47:00,
2013-02-27 14:52:00,55.0,44.0,27.54,South,180,0.0,6.0,65,0.00,,,0.00,Rainwise IP-100,2013-02-27 19:52:00,
2013-02-27 14:57:00,56.0,41.0,27.53,ESE,112,0.0,5.0,58,0.00,,,0.00,Rainwise IP-100,2013-02-27 19:57:00,
2013-02-27 15:02:00,56.0,40.0,27.53,South,180,3.0,7.0,56,0.00,,,0.00,Rainwise IP-100,2013-02-27 20:02:00,
2013-02-27 15:07:00,56.0,40.0,27.53,ENE,67,1.0,6.0,56,0.00,,,0.00,Rainwise IP-100,2013-02-27 20:07:00,
2013-02-27 15:12:00,57.0,42.0,27.53,SW,225,0.0,4.0,57,0.00,,,0.00,Rainwise IP-100,2013-02-27 20:12:00,
2013-02-27 15:17:00,58.0,42.0,27.53,West,270,2.0,4.0,55,0.00,,,0.00,Rainwise IP-100,2013-02-27 20:17:00,
2013-02-27 15:22:00,57.0,40.0,27.53,WSW,247,2.0,4.0,54,0.00,,,0.00,Rainwise IP-100,2013-02-27 20:22:00,
2013-02-27 15:27:00,57.0,39.0,27.54,SSW,202,2.0,5.0,51,0.00,,,0.00,Rainwise IP-100,2013-02-27 20:27:00,
2013-02-27 15:32:00,58.0,40.0,27.54,SE,135,4.0,4.0,50,0.00,,,0.00,Rainwise IP-100,2013-02-27 20:32:00,
2013-02-27 15:37:00,57.0,39.0,27.53,WNW,292,0.0,5.0,51,0.00,,,0.00,Rainwise IP-100,2013-02-27 20:37:00,
2013-02-27 15:42:00,58.0,40.0,27.53,South,180,3.0,6.0,50,0.00,,,0.00,Rainwise IP-100,2013-02-27 20:42:00,
2013-02-27 15:47:00,59.0,38.0,27.53,SSE,157,3.0,7.0,46,0.00,,,0.00,Rainwise IP-100,2013-02-27 20:47:00,
2013-02-27 15:52:00,59.0,38.0,27.53,SSW,202,0.0,9.0,46,0.00,,,0.00,Rainwise IP-100,2013-02-27 20:52:00,
2013-02-27 15:57:00,58.0,38.0,27.53,NNW,337,2.0,8.0,46,0.00,,,0.00,Rainwise IP-100,2013-02-27 20:57:00,
2013-02-27 16:02:00,58.0,38.0,27.53,WNW,292,2.0,9.0,46,0.00,,,0.00,Rainwise IP-100,2013-02-27 21:02:00,
2013-02-27 16:07:00,58.0,38.0,27.53,SSW,202,1.0,6.0,46,0.00,,,0.00,Rainwise IP-100,2013-02-27 21:07:00,
2013-02-27 16:12:00,58.0,37.0,27.53,WNW,292,2.0,7.0,44,0.00,,,0.00,Rainwise IP-100,2013-02-27 21:12:00,
2013-02-27 16:17:00,58.0,37.0,27.53,WSW,247,2.0,5.0,45,0.00,,,0.00,Rainwise IP-100,2013-02-27 21:17:00,
2013-02-27 16:22:00,58.0,38.0,27.53,West,270,5.0,8.0,47,0.00,,,0.00,Rainwise IP-100,2013-02-27 21:22:00,
2013-02-27 16:27:00,58.0,37.0,27.52,WNW,292,1.0,6.0,45,0.00,,,0.00,Rainwise IP-100,2013-02-27 21:27:00,
2013-02-27 16:32:00,57.0,36.0,27.52,WNW,292,4.0,4.0,44,0.00,,,0.00,Rainwise IP-100,2013-02-27 21:32:00,
2013-02-27 16:37:00,56.0,36.0,27.52,West,270,4.0,5.0,46,0.00,,,0.00,Rainwise IP-100,2013-02-27 21:37:00,
2013-02-27 16:42:00,57.0,36.0,27.52,WNW,292,4.0,7.0,45,0.00,,,0.00,Rainwise IP-100,2013-02-27 21:42:00,
2013-02-27 16:47:00,56.0,37.0,27.53,West,270,3.0,5.0,48,0.00,,,0.00,Rainwise IP-100,2013-02-27 21:47:00,
2013-02-27 16:52:00,56.0,35.0,27.53,West,270,2.0,5.0,44,0.00,,,0.00,Rainwise IP-100,2013-02-27 21:52:00,
2013-02-27 16:57:00,55.0,36.0,27.53,WNW,292,3.0,5.0,48,0.00,,,0.00,Rainwise IP-100,2013-02-27 21:57:00,
2013-02-27 17:02:00,55.0,33.0,27.53,WSW,247,0.0,4.0,44,0.00,,,0.00,Rainwise IP-100,2013-02-27 22:02:00,
2013-02-27 17:07:00,55.0,33.0,27.52,West,270,0.0,7.0,44,0.00,,,0.00,Rainwise IP-100,2013-02-27 22:07:00,
2013-02-27 17:12:00,55.0,33.0,27.52,NW,315,3.0,5.0,43,0.00,,,0.00,Rainwise IP-100,2013-02-27 22:12:00,
2013-02-27 17:17:00,54.0,32.0,27.51,South,180,4.0,10.0,43,0.00,,,0.00,Rainwise IP-100,2013-02-27 22:17:00,
2013-02-27 17:22:00,54.0,31.0,27.51,West,270,4.0,17.0,41,0.00,,,0.00,Rainwise IP-100,2013-02-27 22:22:00,
2013-02-27 17:27:00,54.0,31.0,27.52,WNW,292,3.0,7.0,41,0.00,,,0.00,Rainwise IP-100,2013-02-27 22:27:00,
2013-02-27 17:32:00,54.0,31.0,27.52,West,270,4.0,5.0,41,0.00,,,0.00,Rainwise IP-100,2013-02-27 22:32:00,
2013-02-27 17:37:00,53.0,29.0,27.53,WNW,292,1.0,7.0,41,0.00,,,0.00,Rainwise IP-100,2013-02-27 22:37:00,
2013-02-27 17:42:00,53.0,29.0,27.53,NW,315,1.0,5.0,41,0.00,,,0.00,Rainwise IP-100,2013-02-27 22:42:00,
2013-02-27 17:47:00,53.0,29.0,27.54,WNW,292,7.0,8.0,41,0.00,,,0.00,Rainwise IP-100,2013-02-27 22:47:00,
2013-02-27 17:52:00,53.0,31.0,27.54,WNW,292,3.0,8.0,42,0.00,,,0.00,Rainwise IP-100,2013-02-27 22:52:00,
2013-02-27 17:57:00,52.0,29.0,27.54,WNW,292,4.0,4.0,42,0.00,,,0.00,Rainwise IP-100,2013-02-27 22:57:00,
2013-02-27 18:02:00,52.0,31.0,27.54,WNW,292,4.0,6.0,43,0.00,,,0.00,Rainwise IP-100,2013-02-27 23:02:00,
2013-02-27 18:07:00,52.0,32.0,27.54,West,270,0.0,5.0,45,0.00,,,0.00,Rainwise IP-100,2013-02-27 23:07:00,
2013-02-27 18:12:00,51.0,31.0,27.54,West,270,0.0,3.0,44,0.00,,,0.00,Rainwise IP-100,2013-02-27 23:12:00,
2013-02-27 18:17:00,51.0,28.0,27.54,West,270,1.0,4.0,39,0.00,,,0.00,Rainwise IP-100,2013-02-27 23:17:00,
2013-02-27 18:22:00,50.0,28.0,27.54,WNW,292,1.0,4.0,42,0.00,,,0.00,Rainwise IP-100,2013-02-27 23:22:00,
2013-02-27 18:27:00,50.0,26.0,27.54,WSW,247,0.0,3.0,40,0.00,,,0.00,Rainwise IP-100,2013-02-27 23:27:00,
2013-02-27 18:32:00,50.0,28.0,27.54,WNW,292,0.0,3.0,42,0.00,,,0.00,Rainwise IP-100,2013-02-27 23:32:00,
2013-02-27 18:37:00,49.0,28.0,27.55,WNW,292,1.0,3.0,43,0.00,,,0.00,Rainwise IP-100,2013-02-27 23:37:00,
2013-02-27 18:42:00,49.0,28.0,27.55,West,270,2.0,8.0,43,0.00,,,0.00,Rainwise IP-100,2013-02-27 23:42:00,
2013-02-27 18:47:00,49.0,28.0,27.55,West,270,2.0,4.0,44,0.00,,,0.00,Rainwise IP-100,2013-02-27 23:47:00,
2013-02-27 18:52:00,49.0,28.0,27.55,West,270,3.0,6.0,42,0.00,,,0.00,Rainwise IP-100,2013-02-27 23:52:00,
2013-02-27 18:57:00,48.0,28.0,27.56,West,270,0.0,3.0,44,0.00,,,0.00,Rainwise IP-100,2013-02-27 23:57:00,
2013-02-27 19:02:00,48.0,28.0,27.56,NW,315,0.0,3.0,44,0.00,,,0.00,Rainwise IP-100,2013-02-28 00:02:00,
2013-02-27 19:07:00,48.0,32.0,27.57,WNW,292,3.0,4.0,53,0.00,,,0.00,Rainwise IP-100,2013-02-28 00:07:00,
2013-02-27 19:12:00,48.0,32.0,27.57,WNW,292,3.0,7.0,54,0.00,,,0.00,Rainwise IP-100,2013-02-28 00:12:00,
2013-02-27 19:17:00,47.0,32.0,27.56,West,270,2.0,7.0,55,0.00,,,0.00,Rainwise IP-100,2013-02-28 00:17:00,
2013-02-27 19:22:00,47.0,32.0,27.56,SE,135,0.0,4.0,56,0.00,,,0.00,Rainwise IP-100,2013-02-28 00:22:00,
2013-02-27 19:27:00,47.0,32.0,27.56,NNW,337,0.0,6.0,57,0.00,,,0.00,Rainwise IP-100,2013-02-28 00:27:00,
2013-02-27 19:32:00,46.0,33.0,27.56,NNW,337,1.0,3.0,60,0.00,,,0.00,Rainwise IP-100,2013-02-28 00:32:00,
2013-02-27 19:37:00,46.0,33.0,27.56,NNW,337,0.0,3.0,60,0.00,,,0.00,Rainwise IP-100,2013-02-28 00:37:00,
2013-02-27 19:42:00,45.0,32.0,27.56,NW,315,0.0,2.0,61,0.00,,,0.00,Rainwise IP-100,2013-02-28 00:42:00,
2013-02-27 19:47:00,45.0,33.0,27.57,WNW,292,1.0,3.0,63,0.00,,,0.00,Rainwise IP-100,2013-02-28 00:47:00,
2013-02-27 19:52:00,45.0,33.0,27.57,NNW,337,0.0,4.0,64,0.00,,,0.00,Rainwise IP-100,2013-02-28 00:52:00,
2013-02-27 19:57:00,45.0,35.0,27.57,West,270,2.0,3.0,67,0.00,,,0.00,Rainwise IP-100,2013-02-28 00:57:00,
2013-02-27 20:02:00,45.0,37.0,27.57,WSW,247,0.0,3.0,72,0.00,,,0.00,Rainwise IP-100,2013-02-28 01:02:00,
2013-02-27 20:07:00,44.0,36.0,27.58,NW,315,0.0,1.0,71,0.00,,,0.00,Rainwise IP-100,2013-02-28 01:07:00,
2013-02-27 20:12:00,44.0,36.0,27.58,SW,225,0.0,0.0,71,0.00,,,0.00,Rainwise IP-100,2013-02-28 01:12:00,
2013-02-27 20:17:00,44.0,38.0,27.58,SSW,202,0.0,1.0,79,0.00,,,0.00,Rainwise IP-100,2013-02-28 01:17:00,
2013-02-27 20:22:00,43.0,37.0,27.58,SSW,202,0.0,0.0,77,0.00,,,0.00,Rainwise IP-100,2013-02-28 01:22:00,
2013-02-27 20:27:00,42.0,37.0,27.57,SSW,202,0.0,0.0,80,0.00,,,0.00,Rainwise IP-100,2013-02-28 01:27:00,
2013-02-27 20:32:00,44.0,33.0,27.57,WNW,292,5.0,6.0,65,0.00,,,0.00,Rainwise IP-100,2013-02-28 01:32:00,
2013-02-27 20:37:00,44.0,32.0,27.57,WNW,292,3.0,6.0,63,0.00,,,0.00,Rainwise IP-100,2013-02-28 01:37:00,
2013-02-27 20:42:00,45.0,33.0,27.57,West,270,4.0,5.0,63,0.00,,,0.00,Rainwise IP-100,2013-02-28 01:42:00,
2013-02-27 20:47:00,45.0,35.0,27.56,WNW,292,4.0,5.0,65,0.00,,,0.00,Rainwise IP-100,2013-02-28 01:47:00,
2013-02-27 20:52:00,44.0,33.0,27.56,SSW,202,2.0,7.0,66,0.00,,,0.00,Rainwise IP-100,2013-02-28 01:52:00,
2013-02-27 20:57:00,44.0,33.0,27.59,West,270,3.0,9.0,67,0.00,,,0.00,Rainwise IP-100,2013-02-28 01:57:00,
2013-02-27 21:02:00,44.0,35.0,27.59,NNW,337,3.0,9.0,69,0.00,,,0.00,Rainwise IP-100,2013-02-28 02:02:00,
2013-02-27 21:07:00,43.0,35.0,27.59,North,360,6.0,10.0,72,0.00,,,0.00,Rainwise IP-100,2013-02-28 02:07:00,
2013-02-27 21:12:00,43.0,36.0,27.59,WNW,292,0.0,9.0,74,0.00,,,0.00,Rainwise IP-100,2013-02-28 02:12:00,
2013-02-27 21:17:00,43.0,36.0,27.60,East,90,3.0,6.0,76,0.00,,,0.00,Rainwise IP-100,2013-02-28 02:17:00,
2013-02-27 21:22:00,43.0,38.0,27.60,WNW,292,2.0,6.0,81,0.00,,,0.00,Rainwise IP-100,2013-02-28 02:22:00,
2013-02-27 21:27:00,42.0,37.0,27.60,NW,315,0.0,5.0,83,0.00,,,0.00,Rainwise IP-100,2013-02-28 02:27:00,
2013-02-27 21:32:00,42.0,38.0,27.60,East,90,0.0,8.0,86,0.00,,,0.00,Rainwise IP-100,2013-02-28 02:32:00,
2013-02-27 21:37:00,42.0,39.0,27.60,WNW,292,0.0,3.0,90,0.00,,,0.00,Rainwise IP-100,2013-02-28 02:37:00,
2013-02-27 21:42:00,41.0,40.0,27.60,West,270,2.0,4.0,96,0.00,,,0.00,Rainwise IP-100,2013-02-28 02:42:00,
2013-02-27 21:47:00,41.0,39.0,27.60,North,360,3.0,7.0,92,0.00,,,0.00,Rainwise IP-100,2013-02-28 02:47:00,
2013-02-27 21:52:00,41.0,40.0,27.60,WNW,292,1.0,6.0,95,0.00,,,0.00,Rainwise IP-100,2013-02-28 02:52:00,
2013-02-27 21:57:00,41.0,41.0,27.60,WNW,292,0.0,4.0,99,0.00,,,0.00,Rainwise IP-100,2013-02-28 02:57:00,
2013-02-27 22:02:00,40.0,40.0,27.60,NNE,22,1.0,7.0,100,0.00,,,0.00,Rainwise IP-100,2013-02-28 03:02:00,
2013-02-27 22:07:00,40.0,40.0,27.61,NNE,22,1.0,7.0,100,0.00,,,0.00,Rainwise IP-100,2013-02-28 03:07:00,
2013-02-27 22:12:00,40.0,40.0,27.61,NNE,22,0.0,8.0,100,0.00,,,0.00,Rainwise IP-100,2013-02-28 03:12:00,
2013-02-27 22:17:00,39.0,39.0,27.61,NNE,22,1.0,5.0,100,0.00,,,0.00,Rainwise IP-100,2013-02-28 03:17:00,
2013-02-27 22:22:00,39.0,39.0,27.61,NNW,337,0.0,6.0,100,0.00,,,0.00,Rainwise IP-100,2013-02-28 03:22:00,
2013-02-27 22:27:00,39.0,39.0,27.61,NNE,22,3.0,6.0,100,0.00,,,0.00,Rainwise IP-100,2013-02-28 03:27:00,
2013-02-27 22:32:00,39.0,39.0,27.61,NE,45,3.0,6.0,100,0.00,,,0.00,Rainwise IP-100,2013-02-28 03:32:00,
2013-02-27 22:37:00,39.0,39.0,27.61,ENE,67,2.0,7.0,100,0.00,,,0.00,Rainwise IP-100,2013-02-28 03:37:00,
2013-02-27 22:42:00,39.0,39.0,27.61,ESE,112,0.0,2.0,100,0.00,,,0.00,Rainwise IP-100,2013-02-28 03:42:00,
2013-02-27 22:47:00,38.0,38.0,27.61,WNW,292,0.0,3.0,100,0.00,,,0.00,Rainwise IP-100,2013-02-28 03:47:00,
2013-02-27 22:52:00,38.0,38.0,27.61,NE,45,0.0,2.0,100,0.00,,,0.00,Rainwise IP-100,2013-02-28 03:52:00,
2013-02-27 22:57:00,38.0,38.0,27.61,WNW,292,0.0,5.0,100,0.00,,,0.00,Rainwise IP-100,2013-02-28 03:57:00,
2013-02-27 23:02:00,38.0,38.0,27.61,NNW,337,1.0,3.0,100,0.00,,,0.00,Rainwise IP-100,2013-02-28 04:02:00,
2013-02-27 23:07:00,38.0,38.0,27.60,ENE,67,2.0,4.0,100,0.00,,,0.00,Rainwise IP-100,2013-02-28 04:07:00,
2013-02-27 23:12:00,38.0,38.0,27.60,NE,45,2.0,5.0,100,0.00,,,0.00,Rainwise IP-100,2013-02-28 04:12:00,
2013-02-27 23:17:00,38.0,38.0,27.60,NW,315,0.0,6.0,100,0.00,,,0.00,Rainwise IP-100,2013-02-28 04:17:00,
2013-02-27 23:23:00,38.0,38.0,27.60,ENE,67,1.0,3.0,100,0.00,,,0.00,Rainwise IP-100,2013-02-28 04:23:00,
2013-02-27 23:28:00,38.0,38.0,27.60,West,270,1.0,2.0,100,0.00,,,0.00,Rainwise IP-100,2013-02-28 04:28:00,
2013-02-27 23:33:00,38.0,38.0,27.60,NNE,22,1.0,8.0,100,0.00,,,0.00,Rainwise IP-100,2013-02-28 04:33:00,
2013-02-27 23:38:00,38.0,38.0,27.58,North,360,0.0,5.0,100,0.00,,,0.00,Rainwise IP-100,2013-02-28 04:38:00,
2013-02-27 23:43:00,39.0,39.0,27.58,NNE,22,3.0,5.0,100,0.00,,,0.00,Rainwise IP-100,2013-02-28 04:43:00,
2013-02-27 23:48:00,39.0,37.0,27.59,WNW,292,3.0,6.0,92,0.00,,,0.00,Rainwise IP-100,2013-02-28 04:48:00,
2013-02-27 23:53:00,39.0,37.0,27.59,NNW,337,1.0,6.0,93,0.00,,,0.00,Rainwise IP-100,2013-02-28 04:53:00,
2013-02-27 23:58:00,40.0,38.0,27.58,WNW,292,1.0,8.0,90,0.00,,,0.00,Rainwise IP-100,2013-02-28 04:58:00,